GFSMA_250_spd_000.txt.gz
Wind_Speed
53 48 49 50 51 48 48 49 52 50 50 50 51 51 52 51 48 46 44 45 44 43 38 34 38 35 38 51 54 52 51 58 62 69 74 74 69 66 64 68 65 69 68
56 53 49 48 55 54 54 54 55 54 56 56 57 56 55 53 53 52 48 48 48 47 45 40 39 44 44 45 52 59 61 59 65 72 74 76 77 79 77 68 67 64 66
59 53 56 58 58 56 55 55 57 59 58 58 57 56 54 56 58 58 57 56 54 55 52 50 45 43 50 51 50 54 64 66 70 72 79 76 75 78 79 79 70 69 67
56 57 61 65 65 64 62 61 61 63 62 63 63 61 61 63 64 67 64 63 61 59 59 57 55 54 49 51 57 57 60 70 72 75 78 79 79 76 78 76 71 66 65
60 61 65 66 65 66 69 69 69 66 68 68 68 67 67 69 72 73 71 70 69 69 68 69 68 65 63 59 58 60 66 66 76 82 81 81 81 79 77 76 73 71 63
64 68 71 71 70 70 73 76 75 74 76 76 76 77 78 81 83 83 81 80 80 79 79 79 79 77 75 73 72 67 66 72 75 76 86 85 84 84 80 80 79 76 72
72 73 74 75 77 79 80 80 80 82 84 83 82 83 84 86 88 93 93 92 90 91 89 89 88 88 87 85 81 79 76 75 77 81 80 82 93 90 87 87 89 85 83
77 79 82 86 87 88 88 89 90 90 93 94 94 94 92 94 97 98 100 101 99 99 101 100 98 95 94 93 94 92 88 85 82 82 85 86 85 90 95 92 92 92 89
84 87 92 93 92 91 93 95 98 101 104 106 106 108 108 106 105 108 110 108 108 110 111 108 107 108 107 103 100 99 99 97 91 91 90 91 93 91 92 95 96 96 95
90 94 97 98 100 101 105 108 111 114 115 116 117 117 119 118 115 111 113 116 118 119 118 114 112 112 113 113 112 111 109 104 102 97 94 97 95 99 97 96 96 99 100
98 100 103 106 109 113 117 120 125 128 129 129 127 128 129 122 116 114 106 108 110 115 119 120 118 113 113 114 117 118 118 117 114 111 106 100 102 102 102 103 101 99 100
105 109 112 115 119 125 129 133 134 135 136 133 128 123 119 112 106 103 95 90 90 94 97 104 106 106 107 108 113 120 121 126 124 120 118 115 110 109 108 108 109 108 105
109 115 119 123 128 133 138 137 136 135 133 130 124 118 113 107 102 94 90 84 80 85 90 95 99 97 98 100 103 109 117 125 130 128 128 125 121 119 115 114 114 115 114
118 122 125 129 136 140 134 131 130 128 124 116 110 103 98 95 92 89 87 84 79 77 83 89 97 97 96 97 99 101 106 115 125 129 130 130 130 129 127 123 120 121 121
126 132 135 134 132 128 126 124 118 114 108 103 99 94 90 87 85 83 82 79 75 72 72 84 93 96 94 94 94 96 100 105 114 120 127 132 136 135 133 131 129 126 125
132 134 132 128 127 125 122 115 107 105 99 94 87 82 78 76 76 75 73 72 72 66 66 74 82 88 89 90 92 92 94 101 109 116 119 122 127 126 126 136 137 132 129
130 126 124 123 119 117 109 102 97 93 91 88 82 77 74 71 70 68 66 64 63 62 57 68 74 76 80 83 85 86 88 93 101 111 117 120 121 119 119 132 138 136 133
127 124 121 117 112 106 99 94 90 87 82 78 75 73 71 67 64 63 62 63 60 58 55 61 68 70 72 75 77 78 80 84 92 101 111 118 118 115 114 119 127 130 132
124 122 115 107 99 94 92 87 82 77 74 72 70 67 64 62 60 57 54 56 56 53 51 54 63 63 65 67 71 73 74 78 85 92 100 112 115 113 109 111 114 117 126
122 115 107 99 91 84 81 77 74 73 71 67 65 63 60 59 57 55 54 52 51 51 50 48 56 56 56 59 62 65 69 72 78 84 89 97 105 109 109 109 109 108 115
115 105 98 90 83 79 75 73 70 68 65 63 61 58 55 52 49 48 49 49 46 46 48 47 50 54 54 54 53 56 61 66 70 75 79 84 93 99 107 107 109 107 109
102 94 88 82 77 74 72 69 66 63 60 58 55 53 50 47 45 43 43 44 44 43 43 43 44 50 50 47 47 49 54 58 62 69 73 77 83 89 96 103 106 105 106
92 85 80 76 73 70 68 64 60 59 56 53 51 50 49 45 43 41 39 41 43 42 38 40 44 46 44 42 42 48 50 52 57 61 66 70 77 82 87 92 96 103 108
83 79 75 71 68 65 63 59 57 55 51 49 49 48 46 43 42 40 37 35 35 36 35 40 41 37 38 38 42 43 45 48 52 55 60 63 68 75 78 84 88 97 105
77 73 70 66 63 61 59 54 52 49 47 45 43 43 42 39 37 34 33 32 32 33 33 34 32 33 34 37 39 41 43 45 49 51 55 59 61 68 71 76 82 91 100
74 70 66 63 60 57 55 52 50 49 47 44 42 38 36 34 32 30 28 27 27 27 29 29 30 31 30 32 35 36 38 41 43 46 50 58 58 61 66 71 77 82 90

GFSMA_250_spd_003.txt.gz
Wind_Speed
59 59 59 59 61 61 54 53 54 57 57 57 56 56 55 55 56 54 53 52 50 47 43 40 42 42 39 39 45 47 45 46 58 99 100 104 95 92 78 68 71 74 79
64 61 60 60 60 59 56 56 56 57 58 59 60 60 60 61 60 58 56 55 52 50 48 46 45 45 43 43 44 51 55 51 53 62 89 106 96 98 92 71 65 68 74
62 62 64 65 64 61 59 59 60 61 60 62 62 63 65 65 65 63 62 61 57 55 55 53 53 50 49 46 47 50 60 62 59 60 62 70 81 86 93 87 72 66 72
63 68 71 69 68 62 61 64 65 65 65 65 67 69 70 70 70 68 66 66 65 64 62 61 61 59 56 55 52 48 58 59 68 70 68 65 73 77 84 79 81 75 76
69 72 72 72 68 67 68 69 70 70 69 70 73 75 77 77 77 76 77 76 74 73 74 74 72 70 67 65 62 59 57 61 66 68 77 76 74 81 85 88 82 79 81
72 74 74 71 72 73 73 75 76 78 80 81 81 80 81 84 86 84 85 85 84 83 83 83 83 82 80 78 74 73 68 63 63 72 75 80 81 82 84 90 90 85 85
78 76 75 75 76 77 79 80 82 85 89 90 90 88 87 88 90 91 91 92 93 93 94 92 92 91 91 88 87 84 81 78 72 72 75 77 86 84 89 88 97 95 90
77 77 79 80 82 86 89 90 92 93 95 97 96 96 94 97 100 102 104 103 104 105 105 105 102 99 98 99 98 95 94 89 87 84 81 81 82 88 86 89 95 97 99
80 82 86 88 91 94 98 101 103 105 106 108 109 109 108 107 107 113 119 119 116 114 114 113 114 113 110 109 108 105 105 102 100 96 92 88 88 89 89 90 89 97 101
85 88 93 96 101 105 109 112 115 118 120 122 124 125 127 126 125 122 123 126 125 119 117 120 122 123 124 119 117 117 114 114 111 107 105 99 94 93 94 94 93 92 97
90 96 101 106 109 112 118 122 126 128 129 130 129 126 124 124 121 116 111 115 120 124 125 121 120 120 121 123 121 124 124 122 121 119 114 111 105 102 99 98 101 97 95
101 103 109 114 118 122 125 129 129 130 130 129 128 126 123 120 118 116 107 97 99 105 108 113 112 110 109 109 112 118 124 128 131 128 127 121 116 115 107 106 105 106 103
103 109 115 118 123 128 130 130 131 129 129 128 125 124 119 112 106 100 96 90 86 88 91 96 99 103 106 103 104 107 111 116 127 133 131 129 126 123 120 115 112 110 108
109 115 122 126 130 131 130 129 125 124 122 121 119 111 105 99 95 91 86 81 77 76 82 87 91 95 98 98 101 102 104 109 114 124 128 131 130 130 129 126 123 117 115
116 122 126 128 128 131 125 122 121 119 114 106 101 93 89 86 84 81 77 73 68 66 69 77 85 91 93 94 95 98 100 103 108 115 120 126 128 130 133 137 131 126 122
121 125 127 127 124 123 122 119 111 105 100 93 89 85 79 75 74 73 70 68 64 61 61 66 76 83 85 86 88 93 99 101 105 109 112 116 123 130 133 136 132 130 132
124 129 127 124 119 118 117 110 103 96 92 86 81 76 73 70 69 68 66 65 64 61 57 60 69 76 78 76 79 83 89 95 102 106 108 112 115 124 131 135 131 136 140
126 125 120 119 120 113 107 101 95 89 83 78 76 73 72 70 67 64 61 60 59 58 54 54 61 71 72 69 72 75 79 83 91 98 104 107 113 115 122 126 128 133 141
123 119 118 115 111 105 98 93 86 80 76 74 71 68 67 67 65 63 58 54 52 54 54 52 57 62 65 65 65 68 72 74 79 84 91 101 108 114 114 118 121 124 135
119 118 113 108 101 96 90 84 79 75 72 69 67 64 63 62 60 56 54 53 51 51 50 50 56 56 59 61 59 59 64 65 71 76 79 89 98 107 110 111 115 115 122
118 113 107 99 94 88 82 77 74 72 68 65 63 61 59 57 53 51 51 51 49 48 45 44 49 53 56 57 53 52 57 61 65 71 74 79 86 95 101 106 111 111 114
113 104 97 91 85 80 75 73 70 68 65 63 60 58 56 53 50 48 45 43 45 47 44 42 43 47 48 52 50 49 53 56 63 69 71 74 78 82 88 100 106 109 108
102 95 90 84 79 73 70 69 67 64 60 57 56 55 55 51 49 47 42 39 40 42 42 40 40 43 44 43 44 47 49 53 57 61 67 70 75 78 80 89 96 103 105
94 88 82 77 72 68 66 65 63 58 56 55 54 54 53 50 46 43 41 38 37 37 38 35 35 39 39 37 40 41 45 51 54 58 62 65 67 72 77 81 86 92 99
90 84 78 72 68 65 62 60 59 57 55 53 50 47 45 43 39 37 36 34 33 33 33 31 32 34 36 37 38 41 43 45 47 49 56 59 60 63 69 76 81 84 89
83 78 73 68 65 61 59 59 58 56 53 51 47 45 43 40 37 33 31 29 28 27 27 26 27 30 30 34 35 35 37 40 40 44 50 57 54 59 62 68 73 77 80

GFSMA_250_spd_006.txt.gz
Wind_Speed
62 64 65 65 64 61 61 60 61 64 62 57 54 55 56 54 53 52 51 52 51 49 49 48 46 43 38 35 38 37 43 41 59 82 85 84 93 86 95 81 80 77 79
61 67 68 66 65 66 66 66 69 70 67 62 60 60 61 62 59 56 55 56 56 54 52 50 49 47 45 42 40 40 42 49 51 57 94 95 101 94 93 88 76 85 79
69 67 69 70 72 72 71 72 72 72 71 66 65 65 66 65 63 61 59 59 61 62 61 59 55 52 52 49 48 47 45 46 53 57 62 64 103 97 98 105 89 75 73
73 71 75 78 77 75 74 75 76 77 75 71 72 72 72 72 71 70 71 72 71 69 68 66 66 63 59 57 56 54 51 51 51 56 65 64 74 98 101 102 104 104 85
79 79 83 82 81 79 81 83 81 78 76 74 71 73 76 76 76 77 78 79 79 80 80 78 74 72 71 67 66 63 62 59 56 57 60 68 68 84 97 101 105 102 95
85 86 86 84 83 85 84 82 81 80 79 78 80 83 86 87 86 87 88 88 88 89 88 87 86 84 80 78 75 74 71 70 68 64 60 69 75 76 81 95 92 93 99
85 83 83 84 84 82 84 84 86 87 90 89 90 91 94 97 99 99 99 98 99 99 97 95 93 92 91 89 86 84 82 80 78 76 74 69 79 80 79 81 85 88 92
82 84 85 84 86 88 89 89 90 92 95 96 97 99 99 102 105 109 110 111 112 110 108 107 105 103 102 100 97 95 93 91 88 86 85 84 78 81 86 84 84 87 86
84 85 86 89 91 92 93 95 96 97 102 108 111 113 114 113 114 116 117 118 117 114 114 115 115 115 115 113 112 108 103 102 100 98 95 93 91 86 83 86 88 94 90
87 89 90 91 94 95 98 101 106 111 113 116 119 123 126 128 128 124 123 124 125 124 122 124 122 115 119 124 124 122 119 114 111 109 106 104 100 98 92 87 85 86 91
84 86 89 93 98 103 107 110 116 120 122 127 129 131 134 134 130 124 114 117 115 116 116 117 117 114 109 106 112 126 130 127 125 122 118 116 112 109 103 99 97 92 91
86 91 95 100 105 110 112 119 124 128 130 135 135 133 130 124 124 120 112 103 102 104 102 103 104 107 106 104 101 104 112 124 134 133 130 126 123 119 113 112 106 103 98
91 95 102 107 112 117 120 126 130 131 126 125 122 121 120 117 114 109 101 94 88 89 88 89 90 92 95 94 95 98 102 105 113 125 135 135 132 128 122 120 117 111 107
97 103 109 114 119 121 123 127 124 120 119 115 112 110 104 100 95 91 87 82 77 76 77 80 81 83 86 86 86 90 96 102 106 114 123 131 134 133 130 126 125 121 116
105 110 112 116 118 117 119 118 116 111 112 109 104 98 92 88 85 80 75 72 69 66 70 74 74 74 76 80 80 83 87 93 99 105 117 123 128 133 135 131 129 129 124
106 111 112 114 117 116 114 114 114 108 102 96 92 88 84 79 77 73 70 67 65 61 60 70 73 71 69 73 73 77 81 87 90 97 104 114 122 128 130 134 133 133 133
116 116 117 117 114 117 116 113 105 100 94 90 85 82 78 75 73 70 66 63 61 57 53 63 67 71 68 67 67 69 75 80 83 88 93 102 111 119 123 129 135 137 135
120 122 117 117 117 116 110 102 97 93 90 85 81 77 75 71 69 66 63 60 57 53 49 52 63 66 66 62 64 63 68 73 76 80 85 91 99 107 114 121 127 135 139
123 120 120 119 116 109 100 95 91 88 84 79 75 72 69 67 65 62 59 56 53 53 49 46 58 60 62 60 60 59 62 66 70 73 77 84 90 97 103 111 116 123 133
122 121 121 117 109 100 94 90 86 82 77 72 69 67 65 62 59 58 56 54 51 49 46 45 49 54 56 55 55 56 54 59 65 67 70 77 84 90 96 100 104 114 123
124 123 118 111 100 94 89 85 80 76 72 69 65 63 61 58 56 54 52 52 50 48 46 44 45 48 50 51 47 50 52 52 60 64 67 71 77 83 89 95 99 103 109
121 115 109 99 93 88 83 79 75 73 69 64 61 62 60 57 56 53 51 48 47 47 44 41 42 45 46 48 45 45 50 50 53 60 63 66 71 77 83 89 90 95 105
116 108 97 93 88 83 78 74 71 68 64 60 58 59 57 54 51 49 46 44 42 42 41 40 40 42 42 41 42 42 44 46 50 55 60 65 67 71 76 81 82 88 96
110 100 92 87 83 78 73 70 67 65 61 56 53 54 51 50 48 47 45 41 39 37 36 34 34 36 39 38 38 37 39 44 47 53 56 60 62 64 68 73 78 85 88
102 96 89 84 78 73 69 67 65 64 60 55 51 50 48 46 45 43 40 38 35 34 33 32 32 31 32 34 33 35 39 41 41 45 51 55 56 56 62 67 73 79 83
98 90 84 78 73 69 66 64 63 61 59 55 51 49 45 43 40 38 35 32 30 30 30 29 28 28 28 29 31 31 33 33 34 39 50 49 48 53 56 61 66 72 77

GFSMA_250_spd_009.txt.gz
Wind_Speed
60 55 57 58 57 66 65 69 71 69 70 67 65 62 60 59 59 53 52 51 52 51 48 46 45 43 42 40 37 35 36 41 41 47 88 97 97 87 86 90 75 79 83
69 61 70 65 71 72 73 78 78 78 79 77 74 70 68 68 67 63 58 58 56 55 54 52 49 47 47 46 45 43 39 43 48 47 53 87 98 93 89 97 87 81 87
77 75 68 72 80 82 81 83 85 86 85 81 76 73 72 71 69 67 65 64 64 61 60 60 60 59 57 55 53 52 49 46 51 54 52 61 83 96 97 104 99 87 88
76 76 76 81 85 86 88 90 91 85 79 77 76 75 74 73 74 73 71 70 68 67 68 67 66 66 66 66 64 61 59 56 54 59 61 62 63 74 86 102 106 101 90
79 81 87 88 89 91 92 91 85 82 80 79 79 80 82 81 79 78 78 78 78 77 76 76 77 77 76 75 74 72 68 66 64 62 66 67 71 70 77 87 106 108 101
87 89 90 88 85 84 84 84 84 83 84 85 85 85 85 84 83 83 84 84 85 86 86 86 86 85 86 85 83 81 79 75 75 72 69 75 74 75 73 82 108 109 99
85 85 84 84 84 83 85 86 87 88 89 89 88 88 90 91 92 93 93 94 94 96 97 98 98 97 97 95 93 92 89 85 82 82 79 75 81 79 80 83 94 100 101
81 81 82 84 85 85 86 88 89 88 88 89 91 92 94 98 102 106 108 109 110 111 112 112 112 111 108 106 106 104 102 99 95 90 90 87 83 84 83 87 91 91 103
79 80 81 83 85 87 87 88 89 93 97 101 103 107 108 110 114 116 120 121 120 122 124 124 123 123 123 123 121 120 117 113 110 105 100 98 93 91 89 89 93 98 94
77 79 80 82 84 86 87 92 98 103 107 111 113 112 113 114 116 117 121 123 123 123 120 117 115 116 113 110 110 114 124 128 125 120 115 108 105 101 99 97 92 92 94
76 78 80 81 86 91 96 101 107 109 110 112 113 115 117 120 122 122 119 117 117 119 118 115 110 106 105 106 107 103 105 115 127 127 126 123 116 112 109 107 102 96 95
72 75 81 86 93 98 103 109 111 113 113 115 115 115 115 117 119 119 118 116 115 117 112 111 108 103 99 97 98 100 100 103 109 121 128 131 128 122 118 115 111 107 103
78 83 87 92 99 103 112 112 113 117 116 113 111 111 115 117 116 109 101 95 93 95 93 91 91 90 89 88 89 88 91 100 105 110 121 130 135 132 126 124 119 117 113
85 90 93 100 104 112 116 116 113 112 108 107 107 107 105 101 97 93 88 81 78 79 80 80 81 79 78 78 80 78 83 89 98 106 115 124 131 137 137 131 128 125 122
89 94 101 106 110 116 116 110 110 110 105 102 100 96 92 90 86 83 78 73 68 66 72 74 73 71 69 67 73 72 75 80 87 95 106 115 125 133 139 140 133 131 130
94 101 104 110 115 114 110 112 110 104 99 96 91 89 87 83 79 75 72 68 64 57 58 70 72 67 65 63 67 67 68 73 76 84 94 103 115 125 133 141 141 138 135
99 107 110 112 115 113 115 111 104 99 93 90 86 83 80 76 73 69 65 63 60 55 51 67 65 68 65 60 60 65 63 66 70 76 83 91 102 113 126 133 139 141 140
107 110 113 113 114 116 113 105 98 92 88 84 81 78 74 70 68 66 63 61 57 53 48 57 61 62 62 60 56 58 63 62 67 71 77 83 91 102 112 124 132 137 141
110 115 114 115 117 113 105 97 92 86 83 80 76 73 69 67 65 63 60 57 54 50 46 48 57 57 55 57 57 54 57 58 63 68 73 78 82 89 99 110 122 132 136
117 117 117 117 114 107 98 92 86 82 78 75 71 68 66 64 62 61 60 57 53 51 47 44 52 52 52 51 53 53 48 51 57 63 68 73 76 81 88 97 107 118 131
117 118 117 115 107 98 91 86 82 78 75 72 69 66 63 61 60 58 55 53 52 50 46 43 46 48 49 50 49 50 45 46 53 59 63 67 73 76 80 87 95 106 117
118 115 112 106 98 92 86 81 78 74 72 69 67 65 62 60 57 54 50 48 48 48 46 42 40 41 44 47 44 42 42 45 50 55 59 62 68 73 75 79 85 95 106
115 112 106 99 92 86 81 77 74 72 69 66 64 61 59 56 54 52 50 48 47 45 43 41 38 36 37 40 40 36 36 41 45 50 56 59 62 68 73 75 79 85 95
111 108 101 94 89 82 77 73 71 69 66 62 60 57 55 52 49 48 46 43 41 39 37 35 35 32 33 33 34 33 34 38 43 46 51 56 58 63 68 71 74 79 86
108 104 97 92 86 79 74 72 70 67 64 61 58 53 49 46 43 42 40 39 36 35 34 30 29 28 27 29 30 31 33 36 37 40 47 51 55 57 61 66 70 74 79
105 100 95 89 81 75 72 70 67 64 61 59 54 49 44 41 39 38 37 36 34 33 30 28 26 25 25 25 26 28 30 31 33 37 44 47 51 54 57 58 63 69 73

GFSMA_250_spd_015.txt.gz
Wind_Speed
91 89 84 80 79 74 68 69 66 67 68 69 72 74 76 77 78 68 53 59 58 55 54 54 52 53 54 53 53 52 52 50 46 45 43 40 35 55 69 78 78 77 76
73 73 71 71 72 70 70 69 70 73 73 78 82 82 84 81 79 74 71 63 66 65 63 61 59 57 55 56 55 56 57 55 54 51 48 48 46 47 72 75 82 75 73
72 63 65 66 62 62 69 75 80 82 80 84 87 87 81 77 75 74 75 71 68 66 67 66 65 63 60 57 58 59 59 60 61 59 56 53 51 53 65 80 87 81 80
57 59 60 71 70 74 76 82 86 87 92 89 82 83 80 78 78 77 74 74 72 73 65 65 64 65 63 63 64 66 65 64 64 64 63 59 58 55 62 85 87 88 84
66 72 74 75 80 83 86 88 89 87 84 85 84 82 83 80 81 80 79 76 70 70 71 69 63 71 69 69 69 70 69 70 72 69 67 65 63 62 62 79 93 95 89
71 73 74 78 81 79 78 80 80 84 85 84 85 85 87 86 83 80 77 77 78 77 78 78 81 80 82 81 81 80 76 78 76 77 77 74 71 69 68 66 87 99 100
67 68 70 73 77 82 82 84 86 88 89 90 87 85 85 86 82 83 83 86 88 89 87 88 91 93 96 95 94 93 93 87 84 86 87 85 81 78 76 76 74 83 102
70 74 78 81 83 86 88 89 90 89 88 86 86 82 81 84 90 92 94 95 97 99 102 105 107 107 107 108 110 108 106 103 101 96 95 95 94 90 85 86 83 81 85
78 81 84 87 90 91 92 91 88 84 83 83 87 89 88 90 94 100 105 108 112 114 116 118 119 118 117 118 118 116 114 117 118 114 107 105 104 103 99 93 91 88 84
73 75 77 77 78 76 76 77 79 81 85 89 91 95 98 101 104 104 110 116 121 125 126 126 121 118 117 113 114 115 109 109 119 125 119 118 114 111 108 106 100 98 94
66 69 69 70 71 74 75 79 83 88 89 92 99 104 108 112 115 117 117 120 124 125 126 124 121 118 114 111 109 108 103 102 103 111 121 120 118 121 117 112 110 107 105
67 69 70 71 73 76 80 82 85 91 96 103 109 113 116 119 119 120 119 114 113 115 115 117 115 109 104 100 97 94 91 89 94 101 106 117 118 120 124 121 115 112 111
70 70 71 75 78 81 83 89 94 101 106 111 114 115 115 115 113 109 109 105 103 106 106 103 99 94 89 87 87 85 83 80 82 87 96 104 114 116 118 125 127 121 114
74 74 76 80 83 88 92 98 104 108 109 108 112 111 107 106 104 101 101 98 95 96 96 93 91 84 78 78 78 79 77 76 76 80 86 95 103 112 116 116 124 128 125
76 77 81 84 89 95 100 106 108 108 110 109 107 103 102 99 99 99 96 94 88 86 86 87 82 75 71 70 69 72 72 73 74 76 80 85 94 101 110 116 117 125 128
80 83 88 92 97 102 107 109 110 112 110 105 104 104 101 98 96 95 91 87 82 73 67 80 79 71 69 63 61 65 67 69 69 71 76 79 83 92 100 111 118 119 127
86 90 96 100 105 109 111 111 113 111 106 106 106 100 98 94 91 87 83 77 72 68 61 72 74 68 65 61 58 57 61 65 67 68 72 75 77 83 91 100 113 120 123
93 98 103 107 109 111 113 110 108 109 110 107 100 96 92 87 83 77 72 70 68 66 61 59 72 65 62 60 58 56 57 61 63 65 70 71 73 78 83 92 101 113 123
100 104 107 110 110 108 107 108 107 107 104 98 96 90 84 78 74 71 70 67 65 63 61 58 63 61 60 56 56 55 56 57 57 61 65 68 67 72 78 83 92 101 113
106 109 111 109 106 108 109 106 106 102 97 93 88 81 75 72 69 68 66 63 61 59 58 55 54 54 52 50 52 52 53 52 53 55 60 64 66 67 74 78 84 92 102
109 110 108 107 105 105 107 105 100 95 93 87 79 74 70 68 67 64 62 59 56 55 53 50 49 47 46 45 47 49 50 50 52 49 53 59 64 63 70 75 79 85 94
109 104 105 107 108 107 103 97 92 90 84 78 72 69 66 66 64 61 59 56 52 50 49 47 45 44 42 40 43 44 46 49 49 48 50 55 60 62 65 70 74 79 86
100 104 108 109 108 105 99 92 90 85 78 73 70 67 65 63 60 56 54 52 50 47 47 45 43 42 42 39 40 39 40 42 45 46 47 51 58 60 64 67 72 76 81
104 108 108 106 102 97 92 88 86 81 73 70 68 65 62 59 56 53 51 49 45 43 43 42 41 39 36 34 34 36 37 38 39 42 47 47 53 59 58 62 69 73 78
109 106 102 97 97 93 91 87 82 76 71 68 66 63 59 55 52 50 49 46 42 41 40 39 36 35 33 30 29 30 32 33 35 39 44 43 49 56 57 61 65 69 74
104 101 96 98 99 92 91 84 78 73 70 66 63 60 57 52 49 48 45 43 40 38 37 35 33 32 29 26 26 26 26 28 32 35 39 40 45 52 55 58 59 64 68

GFSMA_250_spd_021.txt.gz
Wind_Speed
84 84 91 93 95 97 97 99 96 95 96 94 88 84 80 78 81 83 79 78 77 75 69 73 73 66 63 62 59 57 56 57 58 60 60 53 53 56 54 53 51 49 46
98 98 98 96 95 96 98 100 93 93 90 88 83 80 79 80 83 88 87 85 85 86 78 71 71 71 66 63 61 61 61 60 60 62 64 61 58 59 60 57 54 52 47
98 97 96 97 90 89 91 92 94 92 88 83 84 86 85 82 81 83 84 81 80 83 84 82 81 79 76 72 69 68 65 63 64 65 67 67 65 62 63 64 60 55 51
92 94 94 91 89 88 90 87 83 80 80 81 82 85 86 87 88 90 86 84 82 81 79 79 80 74 70 70 71 72 69 67 68 68 66 69 72 71 68 68 69 62 59
83 83 84 83 83 80 76 75 76 77 79 80 79 80 80 78 78 79 78 78 75 73 73 71 69 70 70 68 68 71 69 71 71 70 70 73 76 77 76 73 72 72 64
74 75 74 71 72 72 74 74 74 75 75 75 77 78 80 78 77 77 77 78 77 77 79 78 78 77 78 79 80 79 79 76 73 75 75 76 78 78 80 80 78 77 76
64 63 64 63 65 67 69 71 73 74 76 79 80 80 79 79 79 79 82 85 87 88 88 88 88 88 87 87 87 87 89 89 88 83 81 81 82 83 83 84 83 82 79
55 54 57 62 64 67 70 72 72 75 77 79 78 77 76 78 81 82 85 89 92 96 99 100 100 99 98 97 97 97 98 98 99 98 94 92 90 88 85 87 88 89 88
53 57 62 66 69 72 74 76 77 77 77 77 79 78 77 78 82 87 93 97 101 105 108 112 112 111 110 107 106 106 106 107 108 110 109 104 101 101 98 93 90 93 94
60 62 67 69 72 75 78 78 78 79 79 80 82 85 88 89 91 93 98 100 104 108 112 116 116 112 109 104 100 97 96 99 102 104 108 110 107 104 106 106 100 96 97
62 67 71 75 79 82 81 79 79 81 83 87 91 94 97 100 100 99 97 98 99 100 101 105 105 101 100 99 98 95 92 92 94 96 100 102 106 105 102 105 109 107 101
70 75 79 82 85 82 82 82 84 89 94 96 99 102 103 97 96 96 98 98 95 100 103 104 103 99 97 96 95 94 94 94 92 92 94 96 98 99 101 104 107 112 112
77 81 84 85 83 81 85 89 93 96 101 105 108 108 103 98 98 104 104 99 98 97 94 97 96 92 88 86 84 84 83 81 82 82 84 85 87 89 91 101 104 109 114
82 86 87 84 84 84 88 95 98 103 108 111 109 107 103 100 100 105 109 101 93 87 87 89 89 83 80 78 76 73 72 73 73 74 76 79 82 84 85 91 100 106 111
87 87 85 85 85 90 92 98 103 108 112 110 106 105 106 106 107 105 105 99 89 87 88 89 84 81 74 69 67 66 66 65 64 66 68 70 75 79 83 88 93 100 106
89 89 88 87 90 95 100 103 108 112 107 106 105 108 108 108 109 106 100 96 94 88 84 83 80 75 71 66 63 62 64 63 63 63 64 63 64 70 76 82 89 96 102
90 91 90 92 94 99 105 109 112 109 107 106 108 109 109 103 102 100 98 94 90 87 79 74 72 71 67 64 62 61 61 61 60 60 62 62 63 66 68 73 82 90 95
92 93 92 94 98 104 108 112 108 105 105 107 109 110 107 103 99 97 93 87 83 76 71 67 69 66 63 59 57 57 57 56 57 56 57 60 63 63 67 71 76 82 91
93 94 96 100 104 109 111 107 104 104 105 106 104 101 99 98 94 89 84 80 74 69 67 63 62 60 59 55 54 53 53 52 53 53 53 56 60 64 66 68 72 77 84
96 97 102 107 108 108 105 104 103 105 104 103 99 97 94 90 85 81 77 72 68 66 64 60 56 55 54 51 49 51 50 49 49 48 50 52 55 60 62 64 69 76 81
98 104 108 109 107 103 102 104 106 104 103 101 99 95 89 83 80 77 74 69 65 63 60 57 54 53 50 50 48 46 47 46 43 45 49 48 51 54 59 64 67 70 73
106 110 111 107 103 103 103 105 102 101 97 96 95 90 82 78 74 71 69 66 62 59 57 54 51 49 47 48 45 42 42 42 42 39 48 45 48 51 55 61 65 65 68
111 110 108 106 103 105 105 104 103 99 97 93 89 85 81 77 72 68 65 63 60 56 53 53 51 48 48 46 41 39 39 38 39 37 45 43 46 48 50 57 62 62 67
111 109 108 107 104 105 105 102 98 97 95 91 84 80 79 74 69 66 63 60 55 53 50 48 48 45 44 44 42 39 36 36 38 38 40 39 43 45 48 53 57 58 64
112 109 108 106 106 104 101 100 96 89 88 85 81 77 74 70 66 62 60 58 54 50 47 46 45 45 43 41 40 37 37 37 35 37 38 39 39 38 42 47 51 56 60
111 111 110 109 106 101 98 97 94 87 83 80 76 71 69 65 61 59 57 55 51 48 45 43 43 43 40 38 37 36 36 35 34 35 33 35 34 32 34 41 47 53 58

GFSMA_250_spd_024.txt.gz
Wind_Speed
76 78 81 83 83 89 91 93 94 94 95 94 91 88 88 88 86 88 84 82 80 80 80 79 79 77 79 76 73 72 70 65 62 61 60 58 61 62 62 62 62 61 59
88 87 88 89 95 98 97 97 94 92 90 89 89 92 93 88 88 87 85 85 86 86 86 85 85 86 84 84 82 79 74 72 72 67 63 62 62 66 64 66 64 65 62
92 95 98 96 97 92 91 92 89 87 89 87 83 84 87 89 88 88 88 84 82 78 76 74 74 75 78 80 83 86 85 83 79 76 69 68 67 69 69 68 67 67 66
90 92 88 85 88 89 87 86 81 79 79 81 81 83 84 84 83 84 83 82 82 80 80 76 75 74 73 74 74 74 75 77 81 82 78 76 74 73 75 73 72 70 72
80 90 86 80 80 80 81 75 73 72 74 76 78 81 81 81 82 82 83 82 81 79 78 77 77 77 76 76 78 79 79 74 71 74 78 79 81 80 80 81 78 76 75
78 78 80 76 73 72 73 69 69 73 77 81 82 83 83 83 81 82 83 82 82 82 82 80 80 80 81 81 82 84 85 86 85 78 74 75 76 82 83 84 85 83 80
72 70 70 70 69 66 66 67 72 75 79 82 84 85 84 83 81 80 81 84 88 90 91 91 92 92 91 91 91 90 92 93 93 94 90 83 81 79 84 87 88 90 88
65 65 65 62 62 64 68 72 76 80 84 86 85 81 79 81 85 90 91 91 94 99 99 101 101 100 100 101 102 101 101 100 101 100 102 98 89 88 87 86 90 91 95
62 61 60 62 64 68 74 78 83 87 88 85 82 81 82 85 89 93 96 101 106 106 104 102 101 103 103 100 99 100 100 101 105 108 111 110 105 100 93 93 92 92 95
60 63 65 67 70 73 78 82 87 89 88 86 86 86 89 92 95 98 100 105 104 102 101 102 105 106 102 97 94 89 88 90 93 97 103 109 112 109 104 97 97 97 94
66 69 70 70 72 76 82 87 89 88 88 88 89 93 97 101 104 106 108 106 101 101 100 102 103 100 98 98 95 93 91 89 90 92 92 93 96 102 108 107 102 103 102
65 66 68 70 75 81 86 89 90 89 88 90 92 96 101 105 109 112 110 104 104 103 103 105 103 101 95 90 86 84 85 85 83 82 82 86 95 96 97 102 108 105 109
65 66 70 76 80 84 89 93 91 90 91 92 96 101 108 110 111 108 105 104 104 105 106 108 102 96 87 81 76 71 72 74 73 75 76 77 80 89 94 94 97 104 106
64 70 77 82 85 89 92 95 93 94 95 98 105 109 110 109 106 106 107 108 107 109 106 101 100 96 85 76 72 68 65 65 65 67 70 73 76 79 83 88 93 98 100
72 76 82 86 89 93 96 92 94 97 101 106 107 107 105 105 105 108 109 108 104 96 96 96 95 89 82 77 72 69 66 61 60 60 62 66 70 74 78 83 88 93 98
78 83 88 89 94 97 96 96 98 102 107 108 104 103 101 101 104 107 108 106 101 94 85 86 86 82 80 75 70 65 61 58 57 57 58 59 62 68 73 78 84 89 94
85 89 92 94 98 97 99 101 106 108 106 104 103 101 102 103 104 104 101 98 94 91 85 82 82 77 74 70 65 61 58 56 55 55 55 57 58 62 67 72 79 85 90
89 94 97 98 96 99 104 106 106 105 103 102 102 102 104 104 103 101 99 96 92 87 82 77 77 72 68 62 60 58 56 54 53 53 54 56 58 61 62 66 72 79 86
95 96 95 95 98 104 107 105 104 102 101 101 103 104 104 105 104 100 96 92 87 83 75 69 69 66 62 58 57 54 52 52 52 50 51 53 56 58 60 62 67 74 81
95 92 95 97 105 104 103 103 102 102 101 101 101 100 100 100 98 94 90 86 80 76 71 66 63 60 58 56 54 52 50 49 47 47 50 50 51 54 59 60 62 68 76
93 93 99 103 103 103 102 103 105 104 104 102 101 99 98 96 92 88 85 79 74 70 67 63 60 58 55 53 52 48 47 49 43 46 46 44 48 50 52 56 60 65 70
96 98 103 107 108 105 105 104 104 104 103 101 100 97 95 92 87 82 78 74 69 65 64 60 56 55 52 50 48 46 45 43 43 40 43 37 43 44 48 52 57 61 65
103 105 109 112 108 106 106 107 107 105 102 99 97 94 91 86 83 79 75 70 66 61 60 60 56 51 50 47 45 43 42 40 39 39 38 35 41 42 46 47 52 57 61
106 109 114 111 108 108 108 107 106 101 98 96 93 89 85 81 77 74 70 66 62 58 55 52 51 51 47 45 43 42 42 37 34 38 35 31 39 40 42 44 48 53 57
110 114 113 110 110 109 108 106 103 99 96 91 87 82 79 75 73 70 65 62 58 54 51 49 48 47 44 42 41 40 39 38 33 34 33 32 36 36 37 40 45 50 55
115 115 111 112 113 110 108 106 102 96 90 84 79 77 74 71 67 64 61 58 55 51 48 46 45 44 41 38 39 39 37 36 35 33 32 31 32 31 33 36 42 46 50

GFSMA_250_spd_027.txt.gz
Wind_Speed
69 68 74 85 85 85 92 95 95 97 97 98 89 84 87 86 80 80 78 77 77 79 78 78 77 77 77 75 72 69 70 73 76 76 72 69 67 65 67 61 62 62 61
75 81 83 87 92 92 98 91 86 84 87 89 88 84 80 76 73 72 73 77 77 78 78 78 78 78 78 79 77 73 69 68 70 73 73 74 75 70 65 62 63 63 62
81 80 83 83 78 75 74 76 79 81 84 87 78 76 74 72 72 76 78 81 80 80 79 76 74 73 72 73 75 76 75 74 70 68 68 73 76 73 74 72 66 65 65
86 87 83 78 77 80 79 78 80 80 77 73 73 74 74 76 79 81 85 88 88 85 78 73 72 71 71 72 73 75 75 76 78 76 71 71 75 76 73 75 75 70 69
79 79 78 78 80 77 77 75 73 73 72 72 72 76 79 82 85 87 90 90 88 83 76 74 74 75 75 77 78 80 83 84 84 84 83 77 76 76 79 74 77 77 73
77 78 78 76 75 74 73 71 70 70 72 75 78 82 85 88 91 92 92 90 87 84 83 84 85 85 85 84 85 87 89 91 93 93 94 93 86 80 79 79 76 80 80
73 73 73 70 69 70 72 71 73 74 77 79 83 87 90 93 96 96 93 91 88 89 91 92 93 94 93 94 93 93 92 92 95 100 102 101 101 93 85 83 79 77 80
66 64 65 67 69 72 75 75 77 81 84 86 87 89 94 97 99 97 95 93 92 94 96 98 101 102 100 98 94 92 90 91 92 96 100 105 107 105 96 85 84 83 81
60 63 67 71 74 76 76 77 79 75 75 81 88 93 95 98 99 97 96 96 98 101 107 110 110 106 103 99 97 93 87 87 87 89 91 94 98 101 104 99 90 88 89
64 68 71 74 75 76 76 75 73 76 82 87 91 94 98 98 96 95 97 100 105 109 111 111 108 105 104 102 100 94 90 86 83 87 91 91 91 93 94 99 105 100 95
62 61 64 67 69 71 70 74 78 81 86 91 93 96 96 96 98 100 103 108 110 110 107 107 107 104 102 101 99 94 90 86 83 80 80 83 88 92 93 94 100 104 102
65 67 68 67 65 70 73 77 81 86 91 93 95 94 94 97 102 108 109 109 107 107 108 109 109 106 108 105 98 89 83 81 76 73 71 72 78 84 92 97 93 94 96
67 69 68 67 71 75 79 82 86 89 92 93 91 94 100 105 109 109 106 104 105 106 108 110 110 107 105 101 97 88 79 73 69 65 62 63 71 77 83 89 91 94 91
70 70 68 72 76 81 83 86 92 91 88 91 95 101 104 108 108 107 107 106 106 107 107 108 105 105 101 95 90 82 75 70 66 61 58 57 63 69 77 80 82 86 93
68 69 72 77 82 85 85 91 92 90 91 96 102 105 104 105 107 108 108 106 107 106 104 107 104 100 97 91 85 76 71 66 62 57 54 53 57 63 70 78 80 82 88
70 73 79 83 86 88 91 95 92 92 96 102 106 104 105 106 107 109 111 110 106 103 100 98 97 94 91 84 79 74 69 63 59 55 52 52 53 55 62 70 78 83 84
75 79 84 86 88 92 96 93 95 98 102 105 106 105 106 107 109 111 110 107 103 97 93 92 90 86 81 76 74 70 65 60 55 52 52 52 54 55 58 64 70 77 83
81 85 87 89 92 97 94 96 101 103 105 106 104 105 108 109 109 107 104 100 96 93 89 86 82 77 73 69 67 64 61 55 52 50 51 51 52 53 54 59 63 69 76
87 90 91 94 98 94 96 101 102 104 106 105 105 108 109 108 106 104 100 96 93 88 84 79 76 72 69 64 63 59 57 51 49 49 51 50 49 50 52 56 59 64 70
89 92 94 98 95 96 101 102 107 107 105 105 107 108 106 104 101 99 95 90 87 82 78 75 70 67 64 61 58 56 53 50 47 47 50 48 48 48 50 55 58 60 65
90 92 97 94 97 101 102 106 106 106 107 108 107 105 104 102 96 91 86 81 78 77 74 72 68 64 61 57 55 52 51 49 43 47 48 42 50 48 49 53 54 57 62
92 97 97 97 100 101 104 108 110 110 110 109 106 105 101 97 90 85 81 77 74 73 70 67 64 60 56 52 51 50 48 45 43 45 45 36 48 47 48 48 51 55 58
96 97 99 104 104 109 112 114 113 112 110 108 107 105 99 92 85 81 79 75 71 68 64 63 61 56 52 49 48 45 44 43 40 42 44 37 46 44 43 44 46 50 56
98 98 104 104 108 113 115 115 114 112 113 110 107 101 91 86 83 79 76 72 68 65 61 57 56 54 51 48 46 43 40 39 38 40 43 36 40 39 41 42 43 46 50
98 104 105 107 112 116 117 116 116 114 112 109 102 92 86 84 81 76 72 68 64 61 57 53 51 50 48 45 43 40 39 38 36 38 40 33 34 34 37 39 40 42 47
104 106 108 112 116 118 121 120 117 113 108 102 94 86 82 79 75 72 68 64 61 57 53 50 47 46 45 43 39 39 37 36 39 34 34 29 30 30 32 37 38 40 44

GFSMA_250_spd_030.txt.gz
Wind_Speed
63 72 72 70 72 76 75 79 87 91 91 90 85 81 77 75 72 67 66 64 64 67 69 72 78 81 84 84 81 78 72 69 67 64 62 63 66 65 63 63 64 62 70
65 67 71 73 74 77 84 89 91 86 88 83 79 75 74 72 69 68 70 70 69 72 74 77 79 82 85 85 80 75 71 67 64 61 60 62 64 64 65 65 63 64 64
74 74 73 78 80 85 85 83 82 82 80 79 78 78 74 71 71 76 75 74 76 78 80 84 84 85 84 81 79 77 74 73 73 70 67 67 69 67 66 67 66 64 65
78 80 79 82 81 82 79 79 77 78 78 77 76 75 75 75 78 78 80 82 84 86 88 87 90 90 88 83 79 78 78 78 79 81 80 77 75 74 73 73 71 70 66
81 84 84 79 77 77 73 73 75 77 75 76 76 78 78 81 82 84 84 86 89 91 92 94 95 93 88 83 80 79 79 82 84 86 88 89 87 82 82 80 78 74 73
79 78 77 70 68 69 72 73 73 73 76 79 80 81 82 84 86 85 85 86 90 94 98 100 99 96 92 87 84 83 84 85 89 93 93 93 95 95 92 90 87 84 79
73 67 65 65 67 68 70 71 73 75 75 78 82 83 83 83 83 84 88 92 96 99 101 103 101 99 95 92 93 93 93 94 94 94 95 95 94 95 96 96 94 93 88
66 63 62 63 64 65 68 69 69 73 76 77 77 77 78 82 85 89 94 97 99 101 101 102 103 103 104 104 100 98 94 90 88 87 86 88 89 90 91 92 94 93 94
57 57 58 60 63 67 71 74 77 79 76 74 77 82 83 86 89 94 96 97 97 100 104 107 110 111 109 107 103 100 95 89 83 83 82 82 84 86 88 92 93 94 93
56 57 61 64 68 71 74 76 76 76 76 79 83 87 90 91 95 95 95 97 101 105 108 113 115 113 111 110 105 103 98 93 89 84 81 79 79 82 86 92 96 97 93
58 61 65 68 71 75 76 75 74 74 78 83 87 89 90 95 98 96 96 101 106 111 114 114 112 111 109 107 104 104 100 96 90 84 81 77 78 77 83 90 94 96 95
63 65 68 70 73 76 74 74 74 79 83 86 88 90 95 97 97 100 103 109 112 114 113 112 110 109 108 107 103 98 94 90 84 78 74 73 74 75 77 79 83 90 97
65 66 68 72 74 71 74 76 80 83 84 86 90 96 97 97 100 105 110 111 111 109 109 110 112 109 107 102 96 92 89 83 79 75 72 70 70 72 72 71 75 81 89
64 67 71 72 73 75 78 81 85 86 87 89 96 96 96 101 106 110 111 109 108 109 111 112 110 107 103 98 94 88 85 82 76 71 68 65 65 67 67 69 71 75 81
67 70 72 73 76 79 82 84 86 88 91 96 97 98 102 107 109 109 108 110 112 111 111 110 107 104 99 95 90 86 81 77 72 65 60 59 60 59 62 67 68 71 78
69 72 72 74 79 83 83 86 88 91 96 98 98 104 106 106 109 111 112 113 113 110 106 105 102 97 92 88 84 80 75 71 67 62 57 56 55 55 57 61 65 67 73
72 72 74 79 84 86 86 89 93 96 99 100 104 106 106 109 112 113 112 111 109 106 101 97 93 89 83 77 73 71 67 65 61 57 54 54 53 52 52 55 61 65 67
73 76 80 84 87 91 91 94 98 99 99 104 105 106 109 112 113 111 111 108 104 97 91 84 82 79 77 72 68 67 65 60 56 53 53 52 50 49 50 51 55 60 64
78 81 86 89 93 96 97 99 101 99 104 107 107 109 112 114 112 111 107 103 98 92 86 81 79 76 72 67 64 61 59 56 51 50 51 49 47 47 49 50 53 57 60
82 86 90 94 97 100 101 103 100 105 108 109 111 113 116 114 111 106 103 98 92 86 83 79 75 71 67 64 60 58 56 50 47 47 49 44 46 47 47 49 51 54 56
86 90 95 98 99 102 103 99 104 108 109 111 114 116 115 112 107 105 101 95 88 83 79 75 71 68 64 61 56 53 53 50 45 46 45 39 47 44 46 45 47 49 53
91 94 97 99 101 103 101 106 110 110 111 114 117 116 113 109 108 104 97 90 84 78 75 71 68 65 62 58 54 49 48 48 46 45 41 37 45 43 44 44 44 47 51
94 98 98 100 103 102 107 111 113 112 113 116 116 114 112 110 106 99 92 86 81 73 70 67 65 62 60 56 52 47 44 43 42 44 42 36 41 39 43 43 43 46 49
97 98 100 103 102 106 111 115 114 114 115 117 116 115 114 108 102 95 88 81 76 70 67 62 60 59 57 54 50 46 44 40 38 41 43 32 37 37 41 43 42 44 46
101 101 104 104 106 111 116 116 115 115 116 117 117 115 111 102 96 89 82 77 71 66 62 59 57 55 54 51 49 44 40 40 36 36 41 33 35 36 36 42 41 41 42
100 104 104 106 111 114 117 116 116 116 117 116 116 112 103 97 91 83 76 74 67 63 58 56 55 53 52 50 47 44 40 36 36 32 38 34 35 36 31 36 39 38 39

GFSMA_250_spd_033.txt.gz
Wind_Speed
54 56 60 64 66 67 70 72 78 80 82 82 85 86 83 79 76 72 70 68 69 70 68 69 73 75 77 79 80 80 81 80 79 78 76 72 68 65 62 59 60 61 62
56 60 63 64 67 74 77 78 80 84 86 84 84 80 75 73 72 71 70 72 73 74 75 75 75 75 77 82 82 83 84 84 85 83 80 75 70 67 66 64 62 61 62
61 66 68 72 80 79 82 84 86 87 84 83 74 68 68 68 72 75 76 77 77 78 79 77 78 80 80 82 85 86 88 89 89 88 84 80 75 71 70 70 68 65 63
70 73 76 78 75 79 87 88 89 81 72 69 67 66 67 70 72 75 77 77 77 77 78 78 80 82 84 86 88 92 95 95 94 93 88 81 79 77 75 77 77 75 72
73 73 77 81 82 84 86 83 76 70 68 68 64 68 70 73 77 76 75 74 75 77 81 83 85 87 90 92 94 96 96 95 94 90 88 86 85 83 83 82 83 82 81
74 75 77 83 86 83 80 73 67 68 66 66 69 71 75 78 78 75 75 78 82 84 87 90 91 93 96 97 98 97 96 94 94 95 95 95 94 93 91 92 93 91 88
75 76 78 82 81 72 70 68 66 66 67 70 73 76 78 77 76 78 81 85 88 90 92 93 97 99 99 100 100 100 99 100 101 102 101 97 93 89 90 91 92 95 97
75 79 80 76 73 68 67 65 66 68 71 74 78 79 76 76 79 83 86 89 89 92 95 99 100 102 102 104 106 108 109 108 106 102 99 96 93 91 88 88 91 93 94
76 74 70 64 62 62 64 66 70 71 72 75 76 76 76 79 83 88 90 91 92 96 99 100 101 105 109 113 115 116 115 111 107 100 95 93 90 89 88 86 87 90 92
66 62 58 59 62 64 67 69 71 75 77 77 76 79 82 87 90 90 91 93 97 100 100 102 107 112 116 117 116 115 113 110 107 101 95 91 89 88 87 87 87 89 92
55 58 58 62 64 67 69 71 74 77 77 77 80 84 87 88 90 91 92 97 100 101 103 109 114 117 117 116 114 111 106 103 100 95 90 88 85 83 83 84 84 87 90
56 58 62 65 68 70 72 73 77 77 78 81 84 87 89 91 93 96 97 100 99 104 111 116 117 116 115 112 109 106 102 98 93 89 84 81 79 77 79 79 80 83 88
60 63 65 68 71 72 74 76 79 77 79 84 87 90 92 94 97 100 99 98 103 109 113 116 116 116 114 112 107 101 98 96 90 85 80 77 75 74 73 75 78 80 82
61 66 68 70 72 74 78 80 78 79 85 87 90 93 95 97 100 98 100 105 110 111 111 114 116 115 112 106 102 98 92 87 82 76 72 70 69 70 71 74 76 78 78
66 68 72 74 76 76 79 80 81 84 87 90 93 96 98 100 99 102 107 111 109 109 114 113 113 109 105 100 94 88 82 76 73 69 65 62 62 63 66 70 71 72 74
68 71 71 71 74 77 81 83 86 87 89 92 96 98 99 99 103 108 110 110 112 114 113 113 108 103 95 88 82 78 75 72 70 67 63 60 58 57 60 63 65 66 68
70 70 71 73 76 80 82 86 89 89 92 95 97 99 101 105 109 111 111 113 115 115 113 108 102 95 87 81 75 72 68 65 63 62 59 57 54 54 55 58 60 61 64
70 73 75 78 82 84 87 90 92 93 94 97 100 101 105 109 113 112 114 116 116 114 107 101 94 88 83 78 73 69 65 61 58 56 56 54 50 50 51 54 56 58 60
73 76 79 82 85 88 91 94 96 97 100 102 103 106 111 114 116 116 118 117 115 109 103 94 89 84 79 75 70 65 62 58 53 51 52 48 48 46 47 49 52 54 57
77 81 83 86 88 91 94 96 97 101 105 105 107 111 115 118 119 119 118 119 112 106 98 91 86 79 73 70 66 62 60 53 50 47 48 43 46 42 43 45 49 51 53
80 84 86 87 91 94 96 99 97 101 104 106 110 114 119 120 120 119 118 116 109 101 93 89 82 75 71 68 63 57 53 51 47 47 44 39 44 41 42 41 43 47 51
84 87 87 92 93 98 99 100 102 108 110 111 114 118 121 121 121 118 114 111 104 97 90 85 78 72 70 65 60 55 50 47 48 46 43 37 41 40 40 40 41 44 48
87 88 91 94 97 99 102 106 108 111 111 115 118 121 122 122 120 115 112 108 99 92 85 81 75 70 67 62 58 54 49 45 44 46 41 32 41 37 37 39 39 41 45
87 91 94 97 99 101 104 107 111 110 114 118 121 122 123 121 117 113 109 103 94 85 81 77 71 68 63 59 57 53 50 45 41 43 41 33 36 35 36 38 37 39 41
92 94 96 99 102 104 106 110 110 114 118 120 120 123 121 118 113 109 103 97 89 81 79 74 67 63 59 56 55 53 49 44 40 38 41 35 35 33 33 36 39 35 38
95 96 99 101 102 105 110 109 115 118 119 118 121 122 120 116 111 105 98 92 85 78 74 70 62 59 57 54 52 51 50 45 39 37 38 34 35 32 30 34 39 38 38

GFSMA_250_spd_036.txt.gz
Wind_Speed
59 62 61 63 60 60 58 63 68 68 70 75 82 82 86 84 84 78 72 64 63 63 65 66 70 72 72 71 70 71 72 72 73 74 74 75 76 75 75 75 74 72 67
58 63 54 56 59 63 64 67 72 78 81 84 86 85 84 77 71 68 63 64 67 69 72 73 72 70 70 72 72 75 76 77 79 80 79 79 81 81 80 81 80 76 72
58 57 60 64 66 69 75 71 73 76 79 84 82 80 77 75 67 66 67 69 71 75 76 76 75 74 73 75 79 81 83 85 86 86 86 87 88 86 84 82 80 77 72
67 69 67 69 70 73 74 71 76 80 82 81 78 76 69 66 67 70 72 75 78 79 77 75 75 76 78 81 83 85 87 87 89 91 93 92 90 89 87 85 82 79 75
55 61 66 73 73 76 75 76 78 80 81 76 74 67 68 68 70 74 77 79 81 80 78 78 80 83 86 87 87 87 88 91 93 93 93 92 92 91 90 89 87 85 82
74 71 71 72 79 76 81 80 81 79 77 74 66 66 68 72 74 78 80 81 80 80 82 85 88 89 90 90 90 91 94 95 95 95 97 99 100 100 100 98 98 96 94
68 68 72 78 80 84 79 81 80 78 74 69 68 67 71 75 79 81 82 81 81 83 86 89 92 91 90 92 94 96 96 96 99 102 104 107 106 105 102 100 99 97 94
69 75 79 74 72 73 76 77 80 70 68 71 71 71 73 74 80 82 83 84 86 89 91 93 93 93 97 98 94 95 98 104 107 111 112 112 109 106 102 100 98 96 94
75 75 72 77 76 77 76 75 68 68 69 70 73 76 78 81 83 80 84 89 91 92 94 93 94 97 95 97 100 103 106 111 114 114 113 111 107 103 100 98 95 94 94
71 73 69 71 69 66 65 66 68 70 73 73 75 80 83 85 85 88 86 89 93 94 94 96 96 95 98 103 107 109 112 113 114 113 112 107 102 97 94 92 92 93 93
66 67 64 62 62 63 68 68 71 74 75 77 80 79 81 84 88 92 94 96 92 93 95 95 97 102 105 109 110 110 109 110 110 107 104 100 95 91 89 86 86 86 88
56 55 57 60 64 66 67 71 74 76 79 80 81 81 83 86 89 92 94 95 95 98 97 99 104 106 110 109 108 109 108 105 104 101 99 96 91 85 82 79 79 80 82
56 56 60 64 66 67 70 73 77 78 78 77 78 82 87 90 94 95 95 96 99 99 100 104 109 112 110 109 108 107 106 103 102 97 92 88 85 80 77 73 70 72 75
59 60 63 64 66 67 75 76 78 78 79 79 81 86 91 93 95 95 96 99 100 103 107 109 108 109 110 109 107 103 101 98 93 88 82 78 76 75 74 73 70 69 71
63 62 63 65 68 75 80 81 80 81 82 83 86 91 95 96 96 97 98 102 102 104 111 115 113 109 108 105 101 99 94 88 84 80 75 71 68 67 67 68 69 68 67
64 63 66 68 71 81 83 82 83 85 86 88 90 94 97 99 99 100 103 106 107 110 112 116 115 113 110 103 97 90 84 80 77 73 69 65 62 60 60 62 63 64 65
64 66 69 72 80 84 84 84 86 89 93 95 95 96 100 100 103 105 108 108 112 114 116 117 116 112 104 103 94 84 78 74 70 67 66 62 58 57 56 57 58 59 61
63 66 73 79 83 84 84 87 91 94 96 97 98 100 100 100 105 108 109 112 116 119 119 117 116 110 104 96 88 79 74 69 65 63 62 58 55 54 52 53 54 54 56
70 73 79 82 83 83 87 91 96 99 98 101 103 102 104 106 110 113 113 118 121 122 119 116 113 108 101 92 84 76 72 67 62 60 58 54 51 50 48 49 50 50 52
74 78 81 80 83 86 88 94 98 100 102 103 105 107 108 111 114 115 119 123 123 123 119 115 110 105 97 88 80 74 70 64 58 57 53 50 52 46 45 47 46 46 48
77 79 82 84 87 88 93 96 98 100 101 104 107 107 110 113 114 118 123 125 124 121 118 111 105 100 91 85 77 70 66 61 56 54 52 41 54 45 43 43 44 43 45
79 82 85 88 90 94 97 98 100 101 104 106 107 110 113 114 118 123 125 124 124 120 115 107 101 94 88 82 74 68 63 58 55 50 51 40 48 44 41 39 40 41 42
83 85 87 89 93 96 97 99 102 103 105 107 110 113 115 118 122 125 124 123 120 116 113 101 98 89 84 78 71 66 61 57 52 49 50 42 42 40 39 38 38 38 38
86 87 89 93 95 97 99 103 105 105 107 111 113 116 119 123 125 124 124 119 117 112 104 97 91 83 80 73 66 62 57 56 51 47 47 46 38 36 37 39 36 36 36
87 90 93 94 97 101 104 106 106 107 111 114 116 120 123 124 124 122 119 116 114 108 94 89 85 79 76 69 62 58 55 55 52 46 43 43 41 33 35 38 38 33 35
88 90 93 97 100 103 105 107 110 112 114 116 120 120 121 122 122 118 116 113 109 100 88 81 81 74 69 63 60 56 54 54 50 46 41 40 38 37 29 36 36 35 34

GFSMA_250_spd_042.txt.gz
Wind_Speed
42 46 45 44 47 50 50 54 55 52 56 64 68 72 71 74 77 77 80 81 84 87 84 80 75 70 71 68 68 68 68 69 69 69 68 67 68 69 69 70 72 70 68
47 50 49 46 50 51 56 53 54 60 62 63 68 70 76 78 76 79 82 85 88 87 82 80 71 68 68 69 69 71 72 74 75 75 74 75 74 74 74 74 75 74 73
49 47 52 55 54 56 57 60 61 63 71 71 70 77 79 85 81 89 89 84 84 83 82 79 70 69 70 71 74 75 77 78 80 80 80 80 80 79 79 79 79 77 77
53 51 46 49 53 58 58 59 62 65 65 70 81 83 78 85 91 87 90 87 85 78 74 75 75 74 75 76 78 78 79 81 82 83 83 82 81 81 81 81 80 78 77
53 56 56 56 55 54 61 67 69 74 78 79 82 84 85 87 90 92 87 82 77 69 69 74 76 78 80 81 82 84 83 84 84 83 82 82 83 83 83 82 80 81 83
52 57 59 55 61 63 64 66 64 71 73 75 80 84 87 90 88 85 82 76 76 78 74 77 80 81 83 85 87 88 87 90 88 86 85 84 85 86 86 85 86 87 89
61 54 59 62 71 68 74 73 80 78 81 86 86 88 87 86 81 71 74 76 75 78 82 85 86 84 86 86 86 86 88 93 92 90 88 90 90 90 89 87 91 94 95
58 60 67 64 62 62 66 73 72 79 83 86 89 89 87 79 71 69 72 78 79 83 86 88 92 92 91 89 89 87 89 94 96 94 94 94 94 93 90 95 99 99 100
65 68 62 67 69 71 76 77 79 84 86 86 82 79 76 76 73 74 75 74 77 85 92 95 92 92 94 95 94 93 95 97 96 97 97 99 97 95 98 101 100 100 100
61 65 64 64 72 76 79 85 87 84 85 80 76 76 76 78 82 81 78 79 82 87 93 95 97 97 97 95 96 97 99 100 100 99 101 101 98 98 99 96 94 96 100
68 69 74 79 79 81 86 84 79 76 76 74 73 76 78 81 83 83 88 92 91 96 97 94 94 96 99 99 101 102 101 103 103 102 102 101 98 95 92 91 94 98 101
73 73 74 76 77 75 74 74 71 70 71 75 80 83 85 83 84 87 90 94 101 104 102 100 99 100 101 101 103 104 104 105 106 104 101 97 96 92 90 91 95 96 95
70 68 69 72 72 68 67 68 69 72 76 82 84 85 85 87 90 96 99 102 105 104 105 107 108 107 107 107 108 108 110 111 107 105 103 100 95 93 93 94 92 89 87
64 68 66 65 68 67 65 69 72 77 83 84 84 87 89 92 94 99 102 105 102 104 107 110 113 115 115 114 113 111 110 110 107 105 104 100 98 97 96 94 86 82 78
61 63 65 65 64 65 70 74 78 81 82 83 86 90 93 98 99 103 103 104 105 107 109 113 117 119 121 120 117 113 110 107 107 103 98 97 98 96 93 85 80 75 71
61 64 66 66 66 70 74 79 80 81 88 87 90 93 97 101 102 102 104 107 110 112 112 115 117 119 119 120 119 115 111 108 108 104 97 96 97 96 90 81 76 72 67
62 64 67 70 74 79 81 82 82 82 86 89 92 96 99 102 105 104 106 109 111 115 116 114 116 118 117 117 116 115 113 109 107 104 101 96 91 85 82 77 73 69 63
65 67 71 74 76 78 78 78 82 85 87 92 97 99 100 100 102 106 108 110 113 113 117 115 116 117 117 117 117 115 113 110 107 104 100 90 84 78 77 73 67 60 57
61 64 68 72 76 78 79 80 85 87 91 95 97 99 100 101 101 104 108 111 112 115 119 118 117 117 118 119 115 113 111 109 106 102 92 82 78 74 73 70 64 55 49
60 64 67 70 73 76 79 81 85 89 91 94 96 96 99 98 103 105 108 110 115 118 120 121 119 117 118 119 118 112 109 107 102 94 82 78 72 68 67 64 60 55 46
61 63 66 69 73 77 80 83 86 88 89 92 94 95 98 100 104 106 109 113 117 120 121 123 121 121 122 121 117 113 107 101 94 86 76 74 68 65 62 58 54 54 49
63 63 65 68 71 74 78 80 83 86 87 89 91 94 99 101 104 107 111 116 118 121 122 123 123 125 124 123 119 111 104 93 84 82 70 69 64 62 57 56 52 53 48
56 59 62 66 70 74 78 81 83 85 86 87 91 94 98 103 107 110 114 116 118 120 121 122 122 121 122 121 117 108 95 86 78 75 65 62 61 59 55 54 50 50 46
59 62 66 69 72 75 76 78 81 83 87 91 95 98 101 104 109 113 115 116 118 120 122 123 124 121 118 111 104 96 90 82 74 71 64 57 60 58 54 51 49 48 45
63 65 68 70 70 74 77 80 81 82 87 91 94 96 101 107 111 114 115 117 118 118 120 122 122 119 110 100 93 88 83 76 70 67 65 56 58 55 54 49 47 44 46
63 63 66 71 76 78 81 84 84 85 84 89 97 102 107 109 111 115 116 119 117 117 115 113 111 107 100 94 88 83 79 72 64 61 61 53 55 50 53 47 45 41 44

GFSMA_250_spd_045.txt.gz
Wind_Speed
41 43 40 42 45 45 47 48 45 45 51 53 55 55 50 60 63 69 74 76 72 80 82 84 85 87 88 81 79 77 72 68 69 68 67 67 66 66 65 65 64 65 67
49 46 45 44 44 44 47 48 50 49 52 52 54 55 62 64 66 70 70 76 80 85 85 86 86 85 84 78 69 67 69 69 70 69 69 71 73 72 70 70 73 73 72
50 52 49 45 47 47 51 53 53 53 53 55 58 61 67 70 73 76 82 83 83 84 83 87 81 79 71 68 67 69 70 72 73 73 75 76 77 77 77 77 77 76 74
52 54 51 52 53 51 51 53 53 54 55 56 62 67 70 72 73 76 75 78 83 88 91 83 76 72 70 69 72 75 76 76 77 76 78 78 79 79 77 78 78 76 76
54 54 55 61 61 56 54 57 59 61 63 67 65 67 71 79 83 86 86 84 83 86 85 76 78 76 73 72 75 78 81 82 80 80 80 81 81 80 80 80 79 78 79
58 60 60 58 55 54 60 59 58 63 67 70 72 74 80 83 83 83 87 89 91 89 80 80 78 78 77 78 81 84 89 90 88 86 86 84 82 83 82 83 83 83 82
51 53 54 54 58 55 56 59 63 62 64 63 65 72 76 81 86 87 88 82 84 81 76 78 82 78 81 86 89 91 96 97 96 95 92 89 89 88 88 87 87 86 87
55 53 57 55 56 60 63 66 69 72 78 78 77 80 87 90 90 83 81 78 76 79 82 83 81 84 87 91 93 96 99 99 100 100 99 96 96 95 93 92 93 93 93
57 51 54 61 59 58 65 67 70 74 75 78 82 87 92 94 91 86 80 77 77 80 84 81 86 91 95 98 99 100 100 101 102 102 102 101 99 97 94 92 89 86 86
51 53 54 55 58 57 63 67 69 76 82 85 88 92 85 84 82 75 78 82 81 83 86 87 91 96 101 104 105 102 102 103 105 105 103 101 97 93 89 88 85 85 86
63 63 65 62 66 66 69 74 78 83 84 83 79 76 75 75 75 80 84 89 86 88 92 92 95 99 104 107 103 102 103 103 105 106 101 94 90 89 88 86 86 86 86
65 69 73 73 77 79 76 78 83 84 78 76 77 76 75 77 79 84 88 88 94 96 99 100 102 105 105 104 104 104 104 106 108 105 99 94 94 95 92 91 89 89 88
66 69 70 74 73 73 75 74 73 73 73 74 75 77 79 82 89 91 92 93 96 98 102 107 108 107 107 107 105 104 106 109 107 105 104 100 99 100 99 96 91 89 87
64 65 69 68 69 70 72 70 70 70 72 75 77 81 85 91 93 95 96 101 98 103 108 111 113 112 110 110 110 111 112 112 108 106 107 106 106 104 98 95 94 90 86
62 63 63 65 66 68 70 70 70 71 74 78 80 84 87 91 93 96 100 101 105 105 106 109 109 113 114 114 115 115 115 112 110 109 109 109 108 103 99 97 94 86 80
61 60 61 65 67 67 66 68 70 73 78 82 85 91 92 94 96 100 101 105 107 107 103 106 107 111 116 120 121 119 116 112 112 114 114 113 107 101 99 93 86 80 75
57 62 64 66 67 71 72 73 75 79 82 87 91 94 95 94 96 100 103 104 105 106 104 104 107 111 115 117 119 118 116 117 118 118 117 114 108 100 96 88 79 75 71
63 61 63 65 68 71 75 80 82 86 86 86 87 90 92 94 97 97 100 101 103 105 106 105 107 109 111 116 117 120 119 119 120 120 118 114 107 96 88 81 77 72 68
66 64 66 64 63 64 67 70 74 79 82 83 85 89 91 90 93 96 98 98 102 105 107 106 104 108 111 116 118 120 122 123 120 118 115 106 96 86 81 77 73 71 65
62 62 61 62 64 66 69 73 76 76 77 79 80 83 86 90 92 95 97 98 101 101 103 106 110 111 114 116 120 124 125 121 115 111 102 92 86 80 77 70 68 65 62
63 66 67 67 69 70 70 67 69 71 74 76 81 85 87 90 92 93 93 93 95 99 106 111 114 118 117 118 123 125 125 119 109 101 88 85 81 74 71 66 64 60 56
64 63 63 62 61 62 64 67 70 73 75 78 80 83 87 90 90 89 88 92 101 103 108 116 118 119 116 119 121 121 121 114 103 95 85 78 75 71 68 65 60 56 54
56 57 58 61 63 65 67 68 71 73 74 75 78 80 81 82 86 87 92 96 100 109 118 121 118 118 119 120 119 115 112 105 97 91 82 75 71 67 66 62 56 52 50
60 61 63 64 66 67 69 71 69 71 74 77 77 81 82 87 89 90 94 98 103 113 117 119 119 119 120 118 116 110 105 99 91 86 79 70 69 65 63 59 53 51 47
59 62 64 65 67 69 68 68 71 72 73 80 85 85 87 90 93 93 97 102 108 114 117 115 116 118 115 112 110 105 99 94 88 82 75 66 67 65 62 59 52 50 46
57 61 63 63 64 67 71 75 79 80 80 84 90 89 90 90 95 101 106 110 112 114 112 110 113 112 109 107 104 99 93 87 82 77 75 67 65 61 60 56 49 46 44

GFSMA_250_spd_048.txt.gz
Wind_Speed
37 40 40 41 41 40 41 44 45 47 48 49 49 51 49 51 53 54 52 54 57 71 72 73 79 78 78 85 82 77 78 80 76 75 71 70 68 67 65 64 64 63 62
50 48 46 44 45 48 47 48 47 46 51 52 55 54 58 58 57 56 59 62 70 74 76 80 82 82 83 83 82 85 82 81 76 69 70 69 70 70 68 67 67 68 68
59 57 51 47 52 54 53 52 49 48 51 51 57 58 54 56 59 61 65 67 73 75 79 81 79 83 85 90 92 87 83 79 70 71 71 72 73 74 75 74 74 76 76
62 60 55 58 57 52 54 55 52 52 52 53 55 56 58 60 66 66 70 70 74 77 79 83 85 88 89 94 83 81 78 77 75 75 77 78 79 81 82 80 81 80 79
64 63 60 57 55 54 52 54 59 60 63 59 63 61 62 62 65 68 76 73 74 80 84 86 89 88 91 82 76 76 76 76 78 81 83 85 85 87 86 86 85 84 84
69 67 63 60 58 59 61 60 62 63 63 62 66 64 62 69 76 71 77 84 84 88 86 87 85 88 85 84 79 79 81 84 86 87 88 90 91 89 89 90 88 86 85
66 65 63 62 63 58 64 64 62 63 62 62 64 67 71 73 78 74 73 79 82 85 83 80 85 82 83 83 83 86 89 91 94 96 97 95 93 92 92 90 89 93 94
69 70 69 66 66 61 60 61 59 60 62 68 72 74 76 76 76 79 82 83 80 78 79 79 79 82 85 86 88 93 94 97 101 102 102 101 101 97 93 92 93 93 89
57 57 57 57 59 64 61 61 61 63 68 71 69 67 70 74 79 81 81 81 80 80 79 77 82 86 88 91 96 98 99 103 106 107 107 107 104 99 97 97 98 93 86
49 49 46 46 48 52 55 55 54 61 64 68 73 74 77 84 84 81 83 82 80 79 79 81 84 87 91 97 101 102 105 107 108 108 109 107 106 104 104 106 100 94 89
44 43 46 51 58 61 63 66 67 71 71 69 72 78 79 80 80 78 78 77 79 81 84 87 89 94 98 101 103 105 107 107 107 110 111 111 112 112 111 106 101 98 96
53 56 62 67 65 64 66 68 72 72 75 80 81 81 78 81 80 78 79 79 83 87 88 93 96 101 105 99 103 104 104 106 108 109 111 113 113 113 110 106 104 100 95
52 57 59 62 64 65 67 70 73 76 77 77 76 74 76 77 77 78 81 84 88 90 97 101 103 100 102 102 101 102 104 105 107 108 112 113 114 114 114 111 108 104 98
55 57 60 62 63 63 67 68 69 70 71 74 75 75 75 77 80 84 86 89 93 98 100 99 101 102 100 102 104 104 105 107 107 110 113 114 114 114 115 113 104 99 94
55 58 61 61 63 65 65 65 67 70 73 73 76 76 77 81 87 89 92 94 100 95 98 100 98 99 101 102 103 104 106 107 111 114 116 115 116 117 117 113 96 90 86
50 52 56 58 62 61 61 65 70 73 76 77 78 83 86 89 92 94 93 94 95 93 89 93 96 99 103 103 101 103 108 110 115 117 118 119 119 120 118 110 90 87 80
52 59 63 61 57 58 64 70 74 73 74 78 82 84 85 85 88 90 91 91 88 89 89 91 96 99 98 96 102 109 110 116 120 121 121 122 122 122 117 107 91 85 80
52 52 58 61 66 71 71 79 74 74 70 72 76 78 82 84 86 87 84 86 88 89 90 89 87 90 95 98 103 109 115 121 121 120 123 123 122 117 110 101 91 83 77
62 65 69 75 74 77 82 77 77 75 74 77 80 85 83 79 79 81 83 82 85 87 89 89 91 93 94 100 105 112 117 122 120 122 124 124 118 108 100 94 84 78 74
66 71 79 79 82 85 79 78 78 80 82 81 78 74 76 78 78 77 79 83 88 90 93 95 94 96 96 101 108 115 118 120 118 121 123 122 115 104 94 86 78 75 70
71 76 79 82 79 77 75 74 74 74 73 73 74 76 77 78 76 79 81 87 88 93 97 100 101 97 98 105 110 113 118 118 117 120 121 115 108 97 88 80 73 68 66
66 66 66 67 67 67 68 71 72 72 73 75 75 76 77 78 81 84 87 92 96 99 99 102 102 101 103 110 112 114 114 114 112 112 112 106 100 91 83 75 72 64 60
62 66 68 70 71 72 74 73 71 69 70 73 75 78 80 83 85 90 92 94 96 101 105 104 99 105 109 113 116 114 114 115 112 109 105 95 94 84 79 74 69 61 58
47 50 54 57 60 62 63 65 66 68 71 75 79 81 84 85 85 85 90 94 100 103 104 108 110 112 114 115 118 115 115 111 106 103 100 86 88 81 77 69 66 59 55
46 47 50 52 54 56 60 64 69 72 75 75 76 79 82 85 85 91 94 92 89 94 99 106 109 113 114 117 117 115 114 109 101 97 94 84 82 78 72 66 62 55 51
47 48 52 56 60 59 61 64 64 65 65 67 73 77 83 85 86 90 88 87 90 94 101 107 111 113 116 117 119 119 110 103 98 91 88 83 79 73 69 64 58 51 48